Location: Alma
(38.7220°N, 88.9090°W)
Time: 19:59:12
(UTC-05:00)

ISS - Visible Passes

Search period start: 21 October 2019 00:00
Search period end: 31 October 2019 00:00
Orbit: 411 x 421 km, 51.6° (Epoch: 21 October)

Date Brightness Start Highest point End Pass type
(mag) Time Alt. Az. Time Alt. Az. Time Alt. Az.
22 Oct -0.4 06:00:31 10° SE 06:01:23 11° SE 06:02:15 10° ESE visible
23 Oct -3.1 06:45:48 10° SW 06:49:06 60° SE 06:52:26 10° ENE visible
24 Oct -2.0 05:57:35 10° SSW 06:00:36 31° SE 06:03:38 10° ENE visible
25 Oct -1.3 05:11:21 16° SSE 05:12:09 18° SE 05:14:30 10° E visible
25 Oct -3.4 06:45:23 10° WSW 06:48:38 46° NW 06:51:54 10° NE visible
26 Oct -3.9 05:58:31 31° WSW 06:00:00 81° NW 06:03:22 10° NE visible
27 Oct -2.2 05:12:29 35° E 05:12:29 35° E 05:14:42 10° ENE visible
27 Oct -2.2 06:45:40 10° WNW 06:48:20 21° NNW 06:51:01 10° NNE visible
28 Oct -2.8 05:59:13 30° NW 05:59:33 31° NNW 06:02:36 10° NE visible
29 Oct -1.4 05:12:52 20° NE 05:12:52 20° NE 05:14:07 10° NE visible
29 Oct -1.5 06:46:31 10° NW 06:48:11 13° NNW 06:49:52 10° NNE visible
30 Oct -1.8 05:59:20 17° NNW 05:59:20 17° NNW 06:01:33 10° NNE visible
